Погода в Дорожаеве

Россия / Тверская область     56°15′33″N   35°22′54″E
темп.,
°C
ветер,
м/с
пор.,
м/с
влажн.,
%
обл.,
%
осадки,
мм/ч
давл.,
гПа
погр.,
м
18 мая, вт
вт1800:00+17юв515930 0.2 1007337
03:00+16вюв412942 0.2 1007286
06:00+16юв412920 0.0 1007339
09:00+20юв610745 0.0 1007467
12:00+25юв611575 0.0 10071032
15:00+26юв6125315 0.0 10062002
18:00+23вюв6136446 0.0 1006529
21:00+19вюв51573100 0.0 1005468
19 мая, ср
ср1900:00+18юв614775 0.0 1005469
03:00+15вюв37944 0.0 1006125
06:00+16вюв38945 0.0 1005244
09:00+19ююв587799 0.0 1006737
12:00+21ююв7106383 0.1 10061681
15:00+21ююв796351 1.1 10071294
18:00+21ю376731 0.0 1006867
21:00+17ю227931 0.0 100712
20 мая, чт
чт2000:00+15в1187100 0.0 100611
03:00+14всв3695100 0.4 1005115
06:00+15вюв41297100 1.1 1004498
09:00+17юв5882100 1.1 1004808
12:00+16юв7118083 0.3 1004840
15:00+18ююв711672 0.8 10041537
18:00+17ююв610763 0.5 10031150
21:00+12ююв49935 0.9 1003232
21 мая, пт
пт2100:00+11ююв49979 0.1 1003246
03:00+11юз488976 0.1 1003497
06:00+9ю4888100 0.0 1004629
09:00+10ю5783100 0.1 1004766
12:00+10юз3692100 0.1 1005575
15:00+9з81390100 0.4 1009926
18:00+13зсз5117681 0.0 10121260
21:00+10ююз467599 0.0 101584
22 мая, сб
сб2200:00+8юз4118474 0.0 1016206
03:00+6юз48913 0.0 1018142
06:00+8зюз36875 0.0 1019164
09:00+13зюз35663 0.0 1019666
12:00+16зюз34520 0.0 10191604
15:00+18юз23440 0.0 10181705
18:00+18ююз24554 0.0 10181750
21:00+12сз11731 0.0 101810